Year,Month,Day,Hour,Minute,Value (Times are PST for temperature in C)
2008,08,31,00,00,10.90
2008,08,31,00,01,10.90
2008,08,31,00,02,10.90
2008,08,31,00,03,10.80
2008,08,31,00,04,10.80
2008,08,31,00,05,10.80
2008,08,31,00,06,10.80
2008,08,31,00,07,10.80
2008,08,31,00,08,10.70
2008,08,31,00,09,10.70
2008,08,31,00,10,10.70
2008,08,31,00,11,10.60
2008,08,31,00,12,10.60
2008,08,31,00,13,10.60
2008,08,31,00,14,10.50
2008,08,31,00,15,10.50
2008,08,31,00,16,10.40
2008,08,31,00,17,10.40
2008,08,31,00,18,10.40
2008,08,31,00,19,10.40
2008,08,31,00,20,10.30
2008,08,31,00,21,10.30
2008,08,31,00,22,10.30
2008,08,31,00,23,10.30
2008,08,31,00,24,10.30
2008,08,31,00,25,10.20
2008,08,31,00,26,10.20
2008,08,31,00,27,10.20
2008,08,31,00,28,10.20
2008,08,31,00,29,10.10
2008,08,31,00,30,10.10
2008,08,31,00,31,10.10
2008,08,31,00,32,10.10
2008,08,31,00,33,10.10
2008,08,31,00,34,10.00
2008,08,31,00,35,10.00
2008,08,31,00,36,10.00
2008,08,31,00,37,10.00
2008,08,31,00,38,10.00
2008,08,31,00,39,10.00
2008,08,31,00,40,10.00
2008,08,31,00,41,9.90
2008,08,31,00,42,9.90
2008,08,31,00,43,9.90
2008,08,31,00,44,9.90
2008,08,31,00,45,9.90
2008,08,31,00,46,9.80
2008,08,31,00,47,9.80
2008,08,31,00,48,9.80
2008,08,31,00,49,9.80
2008,08,31,00,50,9.80
2008,08,31,00,51,9.80
2008,08,31,00,52,9.70
2008,08,31,00,53,9.70
2008,08,31,00,54,9.70
2008,08,31,00,55,9.70
2008,08,31,00,56,9.70
2008,08,31,00,57,9.60
2008,08,31,00,58,9.60
2008,08,31,00,59,9.60
2008,08,31,01,00,9.60
2008,08,31,01,01,9.60
2008,08,31,01,02,9.60
2008,08,31,01,03,9.60
2008,08,31,01,04,9.50
2008,08,31,01,05,9.50
2008,08,31,01,06,9.50
2008,08,31,01,07,9.50
2008,08,31,01,08,9.50
2008,08,31,01,09,9.40
2008,08,31,01,10,9.40
2008,08,31,01,11,9.40
2008,08,31,01,12,9.40
2008,08,31,01,13,9.40
2008,08,31,01,14,9.40
2008,08,31,01,15,9.40
2008,08,31,01,16,9.40
2008,08,31,01,17,9.40
2008,08,31,01,18,9.40
2008,08,31,01,19,9.40
2008,08,31,01,20,9.40
2008,08,31,01,21,9.40
2008,08,31,01,22,9.40
2008,08,31,01,23,9.40
2008,08,31,01,24,9.30
2008,08,31,01,25,9.30
2008,08,31,01,26,9.30
2008,08,31,01,27,9.30
2008,08,31,01,28,9.30
2008,08,31,01,29,9.30
2008,08,31,01,30,9.30
2008,08,31,01,31,9.30
2008,08,31,01,32,9.20
2008,08,31,01,33,9.20
2008,08,31,01,34,9.10
2008,08,31,01,35,9.10
2008,08,31,01,36,9.10
2008,08,31,01,37,9.10
2008,08,31,01,38,9.10
2008,08,31,01,39,9.10
2008,08,31,01,40,9.10
2008,08,31,01,41,9.10
2008,08,31,01,42,9.10
2008,08,31,01,43,9.10
2008,08,31,01,44,9.20
2008,08,31,01,45,9.20
2008,08,31,01,46,9.20
2008,08,31,01,47,9.20
2008,08,31,01,48,9.20
2008,08,31,01,49,9.20
2008,08,31,01,50,9.20
2008,08,31,01,51,9.20
2008,08,31,01,52,9.20
2008,08,31,01,53,9.20
2008,08,31,01,54,9.20
2008,08,31,01,55,9.20
2008,08,31,01,56,9.20
2008,08,31,01,57,9.20
2008,08,31,01,58,9.20
2008,08,31,01,59,9.20
2008,08,31,02,00,9.20
2008,08,31,02,01,9.20
2008,08,31,02,02,9.20
2008,08,31,02,03,9.20
2008,08,31,02,04,9.20
2008,08,31,02,05,9.20
2008,08,31,02,06,9.10
2008,08,31,02,07,9.10
2008,08,31,02,08,9.10
2008,08,31,02,09,9.10
2008,08,31,02,10,9.00
2008,08,31,02,11,9.00
2008,08,31,02,12,9.00
2008,08,31,02,13,9.00
2008,08,31,02,14,9.00
2008,08,31,02,15,8.90
2008,08,31,02,16,8.90
2008,08,31,02,17,8.90
2008,08,31,02,18,8.90
2008,08,31,02,19,8.90
2008,08,31,02,20,8.90
2008,08,31,02,21,8.90
2008,08,31,02,22,8.90
2008,08,31,02,23,8.90
2008,08,31,02,24,8.90
2008,08,31,02,25,8.90
2008,08,31,02,26,8.80
2008,08,31,02,27,8.80
2008,08,31,02,28,8.80
2008,08,31,02,29,8.80
2008,08,31,02,30,8.80
2008,08,31,02,31,8.80
2008,08,31,02,32,8.80
2008,08,31,02,33,8.70
2008,08,31,02,34,8.70
2008,08,31,02,35,8.70
2008,08,31,02,36,8.70
2008,08,31,02,37,8.70
2008,08,31,02,38,8.70
2008,08,31,02,39,8.70
2008,08,31,02,40,8.70
2008,08,31,02,41,8.70
2008,08,31,02,42,8.70
2008,08,31,02,43,8.70
2008,08,31,02,44,8.70
2008,08,31,02,45,8.70
2008,08,31,02,46,8.70
2008,08,31,02,47,8.60
2008,08,31,02,48,8.60
2008,08,31,02,49,8.60
2008,08,31,02,50,8.60
2008,08,31,02,51,8.60
2008,08,31,02,52,8.50
2008,08,31,02,53,8.50
2008,08,31,02,54,8.40
2008,08,31,02,55,8.40
2008,08,31,02,56,8.40
2008,08,31,02,57,8.40
2008,08,31,02,58,8.40
2008,08,31,02,59,8.40
2008,08,31,03,00,8.30
2008,08,31,03,01,8.30
2008,08,31,03,02,8.30
2008,08,31,03,03,8.30
2008,08,31,03,04,8.30
2008,08,31,03,05,8.30
2008,08,31,03,06,8.30
2008,08,31,03,07,8.30
2008,08,31,03,08,8.20
2008,08,31,03,09,8.20
2008,08,31,03,10,8.20
2008,08,31,03,11,8.20
2008,08,31,03,12,8.20
2008,08,31,03,13,8.20
2008,08,31,03,14,8.10
2008,08,31,03,15,8.10
2008,08,31,03,16,8.10
2008,08,31,03,17,8.10
2008,08,31,03,18,8.10
2008,08,31,03,19,8.10
2008,08,31,03,20,8.10
2008,08,31,03,21,8.10
2008,08,31,03,22,8.10
2008,08,31,03,23,8.10
2008,08,31,03,24,8.10
2008,08,31,03,25,8.00
2008,08,31,03,26,8.00
2008,08,31,03,27,8.00
2008,08,31,03,28,7.90
2008,08,31,03,29,7.90
2008,08,31,03,30,7.90
2008,08,31,03,31,7.90
2008,08,31,03,32,7.90
2008,08,31,03,33,7.90
2008,08,31,03,34,7.90
2008,08,31,03,35,7.90
2008,08,31,03,36,7.90
2008,08,31,03,37,7.90
2008,08,31,03,38,7.90
2008,08,31,03,39,8.00
2008,08,31,03,40,8.10
2008,08,31,03,41,8.10
2008,08,31,03,42,8.10
2008,08,31,03,43,8.10
2008,08,31,03,44,8.10
2008,08,31,03,45,8.10
2008,08,31,03,46,8.10
2008,08,31,03,47,8.10
2008,08,31,03,48,8.10
2008,08,31,03,49,8.10
2008,08,31,03,50,8.10
2008,08,31,03,51,8.10
2008,08,31,03,52,8.10
2008,08,31,03,53,8.10
2008,08,31,03,54,8.10
2008,08,31,03,55,8.10
2008,08,31,03,56,8.10
2008,08,31,03,57,8.10
2008,08,31,03,58,8.10
2008,08,31,03,59,8.10
2008,08,31,04,00,8.10
2008,08,31,04,01,8.00
2008,08,31,04,02,8.00
2008,08,31,04,03,8.00
2008,08,31,04,04,8.00
2008,08,31,04,05,8.00
2008,08,31,04,06,8.00
2008,08,31,04,07,8.00
2008,08,31,04,08,8.00
2008,08,31,04,09,8.00
2008,08,31,04,10,8.00
2008,08,31,04,11,7.90
2008,08,31,04,12,7.90
2008,08,31,04,13,7.90
2008,08,31,04,14,7.90
2008,08,31,04,15,7.90
2008,08,31,04,16,7.90
2008,08,31,04,17,7.90
2008,08,31,04,18,7.90
2008,08,31,04,19,7.90
2008,08,31,04,20,7.90
2008,08,31,04,21,7.90
2008,08,31,04,22,7.90
2008,08,31,04,23,7.90
2008,08,31,04,24,7.90
2008,08,31,04,25,7.90
2008,08,31,04,26,7.90
2008,08,31,04,27,7.90
2008,08,31,04,28,7.90
2008,08,31,04,29,7.90
2008,08,31,04,30,7.90
2008,08,31,04,31,7.90
2008,08,31,04,32,8.00
2008,08,31,04,33,7.90
2008,08,31,04,34,7.90
2008,08,31,04,35,7.90
2008,08,31,04,36,7.90
2008,08,31,04,37,7.90
2008,08,31,04,38,7.90
2008,08,31,04,39,7.90
2008,08,31,04,40,8.00
2008,08,31,04,41,8.10
2008,08,31,04,42,8.10
2008,08,31,04,43,8.10
2008,08,31,04,44,8.10
2008,08,31,04,45,8.10
2008,08,31,04,46,8.00
2008,08,31,04,47,8.00
2008,08,31,04,48,8.00
2008,08,31,04,49,8.00
2008,08,31,04,50,8.00
2008,08,31,04,51,8.00
2008,08,31,04,52,8.00
2008,08,31,04,53,8.00
2008,08,31,04,54,8.00
2008,08,31,04,55,7.90
2008,08,31,04,56,7.90
2008,08,31,04,57,7.90
2008,08,31,04,58,7.90
2008,08,31,04,59,7.90
2008,08,31,05,00,7.90
2008,08,31,05,01,7.90
2008,08,31,05,02,7.90
2008,08,31,05,03,7.80
2008,08,31,05,04,7.80
2008,08,31,05,05,7.80
2008,08,31,05,06,7.80
2008,08,31,05,07,7.80
2008,08,31,05,08,7.80
2008,08,31,05,09,7.70
2008,08,31,05,10,7.70
2008,08,31,05,11,7.70
2008,08,31,05,12,7.70
2008,08,31,05,13,7.70
2008,08,31,05,14,7.70
2008,08,31,05,15,7.70
2008,08,31,05,16,7.60
2008,08,31,05,17,7.70
2008,08,31,05,18,7.70
2008,08,31,05,19,7.70
2008,08,31,05,20,7.70
2008,08,31,05,21,7.70
2008,08,31,05,22,7.70
2008,08,31,05,23,7.70
2008,08,31,05,24,7.70
2008,08,31,05,25,7.70
2008,08,31,05,26,7.70
2008,08,31,05,27,7.70
2008,08,31,05,28,7.70
2008,08,31,05,29,7.70
2008,08,31,05,30,7.70
2008,08,31,05,31,7.60
2008,08,31,05,32,7.60
2008,08,31,05,33,7.60
2008,08,31,05,34,7.60
2008,08,31,05,35,7.60
2008,08,31,05,36,7.50
2008,08,31,05,37,7.50
2008,08,31,05,38,7.50
2008,08,31,05,39,7.40
2008,08,31,05,40,7.40
2008,08,31,05,41,7.40
2008,08,31,05,42,7.40
2008,08,31,05,43,7.40
2008,08,31,05,44,7.30
2008,08,31,05,45,7.30
2008,08,31,05,46,7.30
2008,08,31,05,47,7.30
2008,08,31,05,48,7.20
2008,08,31,05,49,7.20
2008,08,31,05,50,7.20
2008,08,31,05,51,7.20
2008,08,31,05,52,7.20
2008,08,31,05,53,7.20
2008,08,31,05,54,7.20
2008,08,31,05,55,7.20
2008,08,31,05,56,7.20
2008,08,31,05,57,7.20
2008,08,31,05,58,7.20
2008,08,31,05,59,7.20
2008,08,31,06,00,7.20
2008,08,31,06,01,7.10
2008,08,31,06,02,7.10
2008,08,31,06,03,7.20
2008,08,31,06,04,7.20
2008,08,31,06,05,7.20
2008,08,31,06,06,7.20
2008,08,31,06,07,7.20
2008,08,31,06,08,7.20
2008,08,31,06,09,7.20
2008,08,31,06,10,7.20
2008,08,31,06,11,7.20
2008,08,31,06,12,7.20
2008,08,31,06,13,7.20
2008,08,31,06,14,7.20
2008,08,31,06,15,7.20
2008,08,31,06,16,7.20
2008,08,31,06,17,7.20
2008,08,31,06,18,7.20
2008,08,31,06,19,7.20
2008,08,31,06,20,7.20
2008,08,31,06,21,7.20
2008,08,31,06,22,7.30
2008,08,31,06,23,7.20
2008,08,31,06,24,7.20
2008,08,31,06,25,7.30
2008,08,31,06,26,7.30
2008,08,31,06,27,7.30
2008,08,31,06,28,7.20
2008,08,31,06,29,7.20
2008,08,31,06,30,7.20
2008,08,31,06,31,7.20
2008,08,31,06,32,7.20
2008,08,31,06,33,7.20
2008,08,31,06,34,7.20
2008,08,31,06,35,7.20
2008,08,31,06,36,7.20
2008,08,31,06,37,7.20
2008,08,31,06,38,7.20
2008,08,31,06,39,7.20
2008,08,31,06,40,7.20
2008,08,31,06,41,7.10
2008,08,31,06,42,7.10
2008,08,31,06,43,7.10
2008,08,31,06,44,7.10
2008,08,31,06,45,7.00
2008,08,31,06,46,7.00
2008,08,31,06,47,7.00
2008,08,31,06,48,7.00
2008,08,31,06,49,7.00
2008,08,31,06,50,7.00
2008,08,31,06,51,6.80
2008,08,31,06,52,6.80
2008,08,31,06,53,6.80
2008,08,31,06,54,6.80
2008,08,31,06,55,6.80
2008,08,31,06,56,6.80
2008,08,31,06,57,6.80
2008,08,31,06,58,6.80
2008,08,31,06,59,6.80
2008,08,31,07,00,6.80
2008,08,31,07,01,6.80
2008,08,31,07,02,6.80
2008,08,31,07,03,6.80
2008,08,31,07,04,6.90
2008,08,31,07,05,6.90
2008,08,31,07,06,6.90
2008,08,31,07,07,6.90
2008,08,31,07,08,6.90
2008,08,31,07,09,6.90
2008,08,31,07,10,6.80
2008,08,31,07,11,6.80
2008,08,31,07,12,6.80
2008,08,31,07,13,6.80
2008,08,31,07,14,6.80
2008,08,31,07,15,6.80
2008,08,31,07,16,6.70
2008,08,31,07,17,6.70
2008,08,31,07,18,6.70
2008,08,31,07,19,6.70
2008,08,31,07,20,6.70
2008,08,31,07,21,6.70
2008,08,31,07,22,6.70
2008,08,31,07,23,6.80
2008,08,31,07,24,6.80
2008,08,31,07,25,6.80
2008,08,31,07,26,6.80
2008,08,31,07,27,6.90
2008,08,31,07,28,6.90
2008,08,31,07,29,6.90
2008,08,31,07,30,6.90
2008,08,31,07,31,6.90
2008,08,31,07,32,7.00
2008,08,31,07,33,7.10
2008,08,31,07,34,7.20
2008,08,31,07,35,7.20
2008,08,31,07,36,7.20
2008,08,31,07,37,7.30
2008,08,31,07,38,7.30
2008,08,31,07,39,7.30
2008,08,31,07,40,7.30
2008,08,31,07,41,7.40
2008,08,31,07,42,7.40
2008,08,31,07,43,7.40
2008,08,31,07,44,7.40
2008,08,31,07,45,7.40
2008,08,31,07,46,7.50
2008,08,31,07,47,7.50
2008,08,31,07,48,7.50
2008,08,31,07,49,7.50
2008,08,31,07,50,7.60
2008,08,31,07,51,7.60
2008,08,31,07,52,7.60
2008,08,31,07,53,7.60
2008,08,31,07,54,7.60
2008,08,31,07,55,7.70
2008,08,31,07,56,7.70
2008,08,31,07,57,7.70
2008,08,31,07,58,7.70
2008,08,31,07,59,7.70
2008,08,31,08,00,7.70
2008,08,31,08,01,7.80
2008,08,31,08,02,7.80
2008,08,31,08,03,7.80
2008,08,31,08,04,7.80
2008,08,31,08,05,7.90
2008,08,31,08,06,7.90
2008,08,31,08,07,7.90
2008,08,31,08,08,7.90
2008,08,31,08,09,7.90
2008,08,31,08,10,7.90
2008,08,31,08,11,7.90
2008,08,31,08,12,7.90
2008,08,31,08,13,7.90
2008,08,31,08,14,7.90
2008,08,31,08,15,8.00
2008,08,31,08,16,8.00
2008,08,31,08,17,8.00
2008,08,31,08,18,8.00
2008,08,31,08,19,8.00
2008,08,31,08,20,8.00
2008,08,31,08,21,8.00
2008,08,31,08,22,8.00
2008,08,31,08,23,8.10
2008,08,31,08,24,8.10
2008,08,31,08,25,8.10
2008,08,31,08,26,8.10
2008,08,31,08,27,8.20
2008,08,31,08,28,8.20
2008,08,31,08,29,8.20
2008,08,31,08,30,8.30
2008,08,31,08,31,8.30
2008,08,31,08,32,8.30
2008,08,31,08,33,8.40
2008,08,31,08,34,8.40
2008,08,31,08,35,8.40
2008,08,31,08,36,8.40
2008,08,31,08,37,8.50
2008,08,31,08,38,8.60
2008,08,31,08,39,8.60
2008,08,31,08,40,8.60
2008,08,31,08,41,8.70
2008,08,31,08,42,8.70
2008,08,31,08,43,8.80
2008,08,31,08,44,8.80
2008,08,31,08,45,8.80
2008,08,31,08,46,8.80
2008,08,31,08,47,8.90
2008,08,31,08,48,8.90
2008,08,31,08,49,8.90
2008,08,31,08,50,8.90
2008,08,31,08,51,8.90
2008,08,31,08,52,8.90
2008,08,31,08,53,8.90
2008,08,31,08,54,8.90
2008,08,31,08,55,8.90
2008,08,31,08,56,9.00
2008,08,31,08,57,9.00
2008,08,31,08,58,9.10
2008,08,31,08,59,9.10
2008,08,31,09,00,9.10
2008,08,31,09,01,9.10
2008,08,31,09,02,9.20
2008,08,31,09,03,9.20
2008,08,31,09,04,9.20
2008,08,31,09,05,9.20
2008,08,31,09,06,9.20
2008,08,31,09,07,9.30
2008,08,31,09,08,9.30
2008,08,31,09,09,9.30
2008,08,31,09,10,9.30
2008,08,31,09,11,9.30
2008,08,31,09,12,9.40
2008,08,31,09,13,9.40
2008,08,31,09,14,9.50
2008,08,31,09,15,9.60
2008,08,31,09,16,9.60
2008,08,31,09,17,9.70
2008,08,31,09,18,9.70
2008,08,31,09,19,9.80
2008,08,31,09,20,9.80
2008,08,31,09,21,9.90
2008,08,31,09,22,9.90
2008,08,31,09,23,10.00
2008,08,31,09,24,10.00
2008,08,31,09,25,10.10
2008,08,31,09,26,10.10
2008,08,31,09,27,10.20
2008,08,31,09,28,10.30
2008,08,31,09,29,10.30
2008,08,31,09,30,10.40
2008,08,31,09,31,10.40
2008,08,31,09,32,10.50
2008,08,31,09,33,10.60
2008,08,31,09,34,10.70
2008,08,31,09,35,10.80
2008,08,31,09,36,10.90
2008,08,31,09,37,10.90
2008,08,31,09,38,11.00
2008,08,31,09,39,11.10
2008,08,31,09,40,11.20
2008,08,31,09,41,11.30
2008,08,31,09,42,11.40
2008,08,31,09,43,11.40
2008,08,31,09,44,11.40
2008,08,31,09,45,11.40
2008,08,31,09,46,11.40
2008,08,31,09,47,11.40
2008,08,31,09,48,11.40
2008,08,31,09,49,11.40
2008,08,31,09,50,11.40
2008,08,31,09,51,11.40
2008,08,31,09,52,11.40
2008,08,31,09,53,11.40
2008,08,31,10,09,13.00
2008,08,31,10,10,13.10
2008,08,31,10,11,13.20
2008,08,31,10,12,13.20
2008,08,31,10,13,13.20
2008,08,31,10,14,13.20
2008,08,31,10,15,13.20
2008,08,31,10,16,13.30
2008,08,31,10,17,13.30
2008,08,31,10,18,13.30
2008,08,31,10,19,13.30
2008,08,31,10,20,13.30
2008,08,31,10,21,13.40
2008,08,31,10,22,13.40
2008,08,31,10,23,13.50
2008,08,31,10,24,13.50
2008,08,31,10,25,13.60
2008,08,31,10,26,13.60
2008,08,31,10,27,13.60
2008,08,31,10,28,13.60
2008,08,31,10,29,13.60
2008,08,31,10,30,13.60
2008,08,31,10,31,13.60
2008,08,31,10,32,13.50
2008,08,31,10,33,13.50
2008,08,31,10,34,13.50
2008,08,31,10,35,13.50
2008,08,31,10,36,13.40
2008,08,31,10,37,13.40
2008,08,31,10,38,13.40
2008,08,31,10,39,13.40
2008,08,31,10,40,13.50
2008,08,31,10,41,13.50
2008,08,31,10,42,13.50
2008,08,31,10,43,13.60
2008,08,31,10,44,13.60
2008,08,31,10,45,13.70
2008,08,31,10,46,13.70
2008,08,31,10,47,13.70
2008,08,31,10,48,13.70
2008,08,31,10,49,13.70
2008,08,31,10,50,13.70
2008,08,31,10,51,13.60
2008,08,31,10,52,13.60
2008,08,31,10,53,13.50
2008,08,31,10,54,13.50
2008,08,31,10,55,13.50
2008,08,31,10,56,13.60
2008,08,31,10,57,13.60
2008,08,31,10,58,13.60
2008,08,31,10,59,13.60
2008,08,31,11,00,13.60
2008,08,31,11,01,13.60
2008,08,31,11,02,13.60
2008,08,31,11,03,13.60
2008,08,31,11,04,13.60
2008,08,31,11,05,13.60
2008,08,31,11,06,13.70
2008,08,31,11,07,13.70
2008,08,31,11,08,13.70
2008,08,31,11,09,13.70
2008,08,31,11,10,13.80
2008,08,31,11,11,13.80
2008,08,31,11,12,13.90
2008,08,31,11,13,13.90
2008,08,31,11,14,14.00
2008,08,31,11,15,14.10
2008,08,31,11,16,14.20
2008,08,31,11,17,14.30
2008,08,31,11,18,14.40
2008,08,31,11,19,14.50
2008,08,31,11,20,14.60
2008,08,31,11,21,14.60
2008,08,31,11,22,14.70
2008,08,31,11,23,14.70
2008,08,31,11,24,14.70
2008,08,31,11,25,14.80
2008,08,31,11,26,14.80
2008,08,31,11,27,14.80
2008,08,31,11,28,14.80
2008,08,31,11,29,14.80
2008,08,31,11,30,14.80
2008,08,31,11,31,14.80
2008,08,31,11,32,14.90
2008,08,31,11,33,14.90
2008,08,31,11,34,14.80
2008,08,31,11,35,14.80
2008,08,31,11,36,14.80
2008,08,31,11,37,14.80
2008,08,31,11,38,14.70
2008,08,31,11,39,14.70
2008,08,31,11,40,14.60
2008,08,31,11,41,14.70
2008,08,31,11,42,14.70
2008,08,31,11,43,14.70
2008,08,31,11,44,14.70
2008,08,31,11,45,14.70
2008,08,31,11,46,14.80
2008,08,31,11,47,14.90
2008,08,31,11,48,15.00
2008,08,31,11,49,15.00
2008,08,31,11,50,15.00
2008,08,31,11,51,15.30
2008,08,31,11,52,15.40
2008,08,31,11,53,15.60
2008,08,31,11,54,15.60
2008,08,31,11,55,15.70
2008,08,31,11,56,15.80
2008,08,31,11,57,15.80
2008,08,31,11,58,15.80
2008,08,31,11,59,15.80
2008,08,31,12,00,15.80
2008,08,31,12,01,15.80
2008,08,31,12,02,15.80
2008,08,31,12,03,16.00
2008,08,31,12,04,16.00
2008,08,31,12,05,16.10
2008,08,31,12,06,16.20
2008,08,31,12,07,16.20
2008,08,31,12,08,16.30
2008,08,31,12,09,16.30
2008,08,31,12,10,16.30
2008,08,31,12,11,16.30
2008,08,31,12,12,16.30
2008,08,31,12,13,16.20
2008,08,31,12,14,16.10
2008,08,31,12,15,16.10
2008,08,31,12,16,16.10
2008,08,31,12,17,16.10
2008,08,31,12,18,16.10
2008,08,31,12,19,16.10
2008,08,31,12,20,16.00
2008,08,31,12,21,16.00
2008,08,31,12,22,16.00
2008,08,31,12,23,15.90
2008,08,31,12,24,15.80
2008,08,31,12,25,15.80
2008,08,31,12,26,15.80
2008,08,31,12,27,15.70
2008,08,31,12,28,15.70
2008,08,31,12,29,15.70
2008,08,31,12,30,15.70
2008,08,31,12,31,15.80
2008,08,31,12,32,15.90
2008,08,31,12,33,16.00
2008,08,31,12,34,16.10
2008,08,31,12,35,16.10
2008,08,31,12,36,16.20
2008,08,31,12,37,16.20
2008,08,31,12,38,16.20
2008,08,31,12,39,16.20
2008,08,31,12,40,16.20
2008,08,31,12,41,16.20
2008,08,31,12,42,16.30
2008,08,31,12,43,16.30
2008,08,31,12,44,16.30
2008,08,31,12,45,16.30
2008,08,31,12,46,16.30
2008,08,31,12,47,16.30
2008,08,31,12,48,16.30
2008,08,31,12,49,16.30
2008,08,31,12,50,16.30
2008,08,31,12,51,16.40
2008,08,31,12,52,16.50
2008,08,31,12,53,16.70
2008,08,31,12,54,16.80
2008,08,31,12,55,16.90
2008,08,31,12,56,17.00
2008,08,31,12,57,17.10
2008,08,31,12,58,17.10
2008,08,31,12,59,17.10
2008,08,31,13,00,17.10
2008,08,31,13,01,17.10
2008,08,31,13,02,17.10
2008,08,31,13,03,17.00
2008,08,31,13,04,17.00
2008,08,31,13,05,16.90
2008,08,31,13,06,16.70
2008,08,31,13,07,16.60
2008,08,31,13,08,16.60
2008,08,31,13,09,16.50
2008,08,31,13,10,16.40
2008,08,31,13,11,16.40
2008,08,31,13,12,16.40
2008,08,31,13,13,16.40
2008,08,31,13,14,16.40
2008,08,31,13,15,16.40
2008,08,31,13,16,16.50
2008,08,31,13,17,16.60
2008,08,31,13,18,16.70
2008,08,31,13,19,16.80
2008,08,31,13,20,17.00
2008,08,31,13,21,17.10
2008,08,31,13,22,17.30
2008,08,31,13,23,17.50
2008,08,31,13,24,17.70
2008,08,31,13,25,17.90
2008,08,31,13,26,17.90
2008,08,31,13,27,18.00
2008,08,31,13,28,18.10
2008,08,31,13,29,18.20
2008,08,31,13,30,18.20
2008,08,31,13,31,18.20
2008,08,31,13,32,18.20
2008,08,31,13,33,18.10
2008,08,31,13,34,18.00
2008,08,31,13,35,17.90
2008,08,31,13,36,17.90
2008,08,31,13,37,17.80
2008,08,31,13,38,17.80
2008,08,31,13,39,17.70
2008,08,31,13,40,17.70
2008,08,31,13,41,17.70
2008,08,31,13,42,17.60
2008,08,31,13,43,17.50
2008,08,31,13,44,17.40
2008,08,31,13,45,17.40
2008,08,31,13,46,17.30
2008,08,31,13,47,17.20
2008,08,31,13,48,17.00
2008,08,31,13,49,17.00
2008,08,31,13,50,16.90
2008,08,31,13,51,16.90
2008,08,31,13,52,17.00
2008,08,31,13,53,17.10
2008,08,31,13,54,17.20
2008,08,31,13,55,17.20
2008,08,31,13,56,17.30
2008,08,31,13,57,17.40
2008,08,31,13,58,17.50
2008,08,31,13,59,17.70
2008,08,31,14,00,17.80
2008,08,31,14,01,17.90
2008,08,31,14,02,18.00
2008,08,31,14,03,18.10
2008,08,31,14,04,18.20
2008,08,31,14,05,18.40
2008,08,31,14,06,18.60
2008,08,31,14,07,18.70
2008,08,31,14,08,18.70
2008,08,31,14,09,18.70
2008,08,31,14,10,18.70
2008,08,31,14,11,18.70
2008,08,31,14,12,18.70
2008,08,31,14,13,18.70
2008,08,31,14,14,18.70
2008,08,31,14,15,18.70
2008,08,31,14,16,18.80
2008,08,31,14,17,18.80
2008,08,31,14,18,18.90
2008,08,31,14,19,19.00
2008,08,31,14,20,19.00
2008,08,31,14,21,19.10
2008,08,31,14,22,19.10
2008,08,31,14,23,19.10
2008,08,31,14,24,19.10
2008,08,31,14,25,19.10
2008,08,31,14,26,19.10
2008,08,31,14,27,19.10
2008,08,31,14,28,19.00
2008,08,31,14,29,19.00
2008,08,31,14,30,18.90
2008,08,31,14,31,18.90
2008,08,31,14,32,18.90
2008,08,31,14,33,18.80
2008,08,31,14,34,18.80
2008,08,31,14,35,18.80
2008,08,31,14,36,18.80
2008,08,31,14,37,18.90
2008,08,31,14,38,18.90
2008,08,31,14,39,18.90
2008,08,31,14,40,18.90
2008,08,31,14,41,18.90
2008,08,31,14,42,18.80
2008,08,31,14,43,18.80
2008,08,31,14,44,18.80
2008,08,31,14,45,18.80
2008,08,31,14,46,18.70
2008,08,31,14,47,18.70
2008,08,31,14,48,18.70
2008,08,31,14,49,18.70
2008,08,31,14,50,18.70
2008,08,31,14,51,18.70
2008,08,31,14,52,18.70
2008,08,31,14,53,18.80
2008,08,31,14,54,18.80
2008,08,31,14,55,18.90
2008,08,31,14,56,19.00
2008,08,31,14,57,19.10
2008,08,31,14,58,19.20
2008,08,31,14,59,19.20
2008,08,31,15,00,19.30
2008,08,31,15,01,19.30
2008,08,31,15,02,19.30
2008,08,31,15,03,19.30
2008,08,31,15,04,19.30
2008,08,31,15,05,19.30
2008,08,31,15,06,19.30
2008,08,31,15,07,19.40
2008,08,31,15,08,19.40
2008,08,31,15,09,19.40
2008,08,31,15,10,19.40
2008,08,31,15,11,19.50
2008,08,31,15,12,19.50
2008,08,31,15,13,19.60
2008,08,31,15,14,19.70
2008,08,31,15,15,19.70
2008,08,31,15,16,19.70
2008,08,31,15,17,19.80
2008,08,31,15,18,19.80
2008,08,31,15,19,19.90
2008,08,31,15,20,20.00
2008,08,31,15,21,20.00
2008,08,31,15,22,19.90
2008,08,31,15,23,19.80
2008,08,31,15,24,19.70
2008,08,31,15,25,19.60
2008,08,31,15,26,19.70
2008,08,31,15,27,19.70
2008,08,31,15,28,19.70
2008,08,31,15,29,19.80
2008,08,31,15,30,19.80
2008,08,31,15,31,19.80
2008,08,31,15,32,19.90
2008,08,31,15,33,19.80
2008,08,31,15,34,19.90
2008,08,31,15,35,19.90
2008,08,31,15,36,20.00
2008,08,31,15,37,20.00
2008,08,31,15,38,20.10
2008,08,31,15,39,20.10
2008,08,31,15,40,20.10
2008,08,31,15,41,20.10
2008,08,31,15,42,20.10
2008,08,31,15,43,20.00
2008,08,31,15,44,19.90
2008,08,31,15,45,19.90
2008,08,31,15,46,19.90
2008,08,31,15,47,19.90
2008,08,31,15,48,20.00
2008,08,31,15,49,20.10
2008,08,31,15,50,20.10
2008,08,31,15,51,20.20
2008,08,31,15,52,20.20
2008,08,31,15,53,20.20
2008,08,31,15,54,20.10
2008,08,31,15,55,20.10
2008,08,31,15,56,20.10
2008,08,31,15,57,20.10
2008,08,31,15,58,20.10
2008,08,31,15,59,20.10
2008,08,31,16,00,20.20
2008,08,31,16,01,20.20
2008,08,31,16,02,20.30
2008,08,31,16,03,20.30
2008,08,31,16,04,20.40
2008,08,31,16,05,20.40
2008,08,31,16,06,20.50
2008,08,31,16,07,20.50
2008,08,31,16,08,20.50
2008,08,31,16,09,20.40
2008,08,31,16,10,20.40
2008,08,31,16,11,20.30
2008,08,31,16,12,20.30
2008,08,31,16,13,20.30
2008,08,31,16,14,20.40
2008,08,31,16,15,20.40
2008,08,31,16,16,20.30
2008,08,31,16,17,20.40
2008,08,31,16,18,20.40
2008,08,31,16,19,20.40
2008,08,31,16,20,20.30
2008,08,31,16,21,20.30
2008,08,31,16,22,20.20
2008,08,31,16,23,20.10
2008,08,31,16,24,20.10
2008,08,31,16,25,20.10
2008,08,31,16,26,20.10
2008,08,31,16,27,20.10
2008,08,31,16,28,20.00
2008,08,31,16,29,19.90
2008,08,31,16,30,19.90
2008,08,31,16,31,19.90
2008,08,31,16,32,20.00
2008,08,31,16,33,20.00
2008,08,31,16,34,20.10
2008,08,31,16,35,20.20
2008,08,31,16,36,20.30
2008,08,31,16,37,20.30
2008,08,31,16,38,20.40
2008,08,31,16,39,20.40
2008,08,31,16,40,20.40
2008,08,31,16,41,20.40
2008,08,31,16,42,20.40
2008,08,31,16,43,20.40
2008,08,31,16,44,20.40
2008,08,31,16,45,20.50
2008,08,31,16,46,20.60
2008,08,31,16,47,20.60
2008,08,31,16,48,20.60
2008,08,31,16,49,20.60
2008,08,31,16,50,20.60
2008,08,31,16,51,20.60
2008,08,31,16,52,20.60
2008,08,31,16,53,20.60
2008,08,31,16,54,20.60
2008,08,31,16,55,20.70
2008,08,31,16,56,20.70
2008,08,31,16,57,20.60
2008,08,31,16,58,20.60
2008,08,31,16,59,20.70
2008,08,31,17,00,20.70
2008,08,31,17,01,20.70
2008,08,31,17,02,20.70
2008,08,31,17,03,20.60
2008,08,31,17,04,20.60
2008,08,31,17,05,20.50
2008,08,31,17,06,20.40
2008,08,31,17,07,20.30
2008,08,31,17,08,20.30
2008,08,31,17,09,20.20
2008,08,31,17,10,20.20
2008,08,31,17,11,20.20
2008,08,31,17,12,20.20
2008,08,31,17,13,20.20
2008,08,31,17,14,20.10
2008,08,31,17,15,20.10
2008,08,31,17,16,20.00
2008,08,31,17,17,20.00
2008,08,31,17,18,20.00
2008,08,31,17,19,19.90
2008,08,31,17,20,19.90
2008,08,31,17,21,19.90
2008,08,31,17,22,19.80
2008,08,31,17,23,19.70
2008,08,31,17,24,19.70
2008,08,31,17,25,19.70
2008,08,31,17,26,19.70
2008,08,31,17,27,19.70
2008,08,31,17,28,19.70
2008,08,31,17,29,19.70
2008,08,31,17,30,19.70
2008,08,31,17,31,19.70
2008,08,31,17,32,19.70
2008,08,31,17,33,19.70
2008,08,31,17,34,19.60
2008,08,31,17,35,19.60
2008,08,31,17,36,19.60
2008,08,31,17,37,19.50
2008,08,31,17,38,19.40
2008,08,31,17,39,19.40
2008,08,31,17,40,19.30
2008,08,31,17,41,19.30
2008,08,31,17,42,19.30
2008,08,31,17,43,19.30
2008,08,31,17,44,19.30
2008,08,31,17,45,19.20
2008,08,31,17,46,19.30
2008,08,31,17,47,19.30
2008,08,31,17,48,19.30
2008,08,31,17,49,19.40
2008,08,31,17,50,19.40
2008,08,31,17,51,19.40
2008,08,31,17,52,19.30
2008,08,31,17,53,19.20
2008,08,31,17,54,19.10
2008,08,31,17,55,19.00
2008,08,31,17,56,18.90
2008,08,31,17,57,18.90